| time (UTC) | temp C | wind direction | speed KPH | gust KPH | rain 1hr cm | rain 24hr cm | rain mn cm | humidity % | barometer mb |
| 20260503224537 | 13 | 226 | 14.5 | 20.9 | 0.00 | 0.00 | 0.00 | 44 | 1009.8 |
| 20260503224034 | 13 | 226 | 8.0 | 9.7 | 0.00 | 0.00 | 0.00 | 46 | 1009.7 |
| 20260503223532 | 13 | 214 | 6.4 | 9.7 | 0.00 | 0.00 | 0.00 | 45 | 1009.9 |
| 20260503223027 | 14 | 221 | 9.7 | 11.3 | 0.00 | 0.00 | 0.00 | 44 | 1010.0 |
| 20260503222526 | 13 | 240 | 6.4 | 8.0 | 0.00 | 0.00 | 0.00 | 45 | 1010.0 |
| 20260503222024 | 13 | 255 | 8.0 | 9.7 | 0.00 | 0.00 | 0.00 | 45 | 1009.9 |
| 20260503221522 | 13 | 224 | 14.5 | 20.9 | 0.00 | 0.00 | 0.00 | 44 | 1010.1 |
| 20260503221019 | 13 | 172 | 6.4 | 11.3 | 0.00 | 0.00 | 0.00 | 44 | 1010.1 |
| 20260503220515 | 14 | 239 | 6.4 | 8.0 | 0.00 | 0.00 | 0.00 | 45 | 1010.1 |
| 20260503220012 | 14 | 240 | 12.9 | 17.7 | 0.00 | 0.00 | 0.00 | 44 | 1010.0 |
| 20260503215509 | 14 | 264 | 8.0 | 9.7 | 0.00 | 0.00 | 0.00 | 44 | 1009.8 |
| 20260503215006 | 15 | 236 | 4.8 | 4.8 | 0.00 | 0.00 | 0.00 | 46 | 1009.9 |
| 20260503214504 | 15 | 232 | 4.8 | 4.8 | 0.00 | 0.00 | 0.00 | 44 | 1010.1 |
| 20260503214000 | 14 | 249 | 8.0 | 9.7 | 0.00 | 0.00 | 0.00 | 43 | 1009.9 |
| 20260503213459 | 15 | 218 | 8.0 | 8.0 | 0.00 | 0.00 | 0.00 | 43 | 1010.1 |
| 20260503212955 | 14 | 225 | 9.7 | 11.3 | 0.00 | 0.00 | 0.00 | 42 | 1010.1 |
| 20260503212453 | 15 | 214 | 9.7 | 11.3 | 0.00 | 0.00 | 0.00 | 43 | 1010.0 |
| 20260503211950 | 14 | 267 | 9.7 | 12.9 | 0.00 | 0.00 | 0.00 | 42 | 1010.1 |
| 20260503211447 | 14 | 247 | 8.0 | 12.9 | 0.00 | 0.00 | 0.00 | 43 | 1010.1 |
| 20260503210942 | 14 | 219 | 17.7 | 24.1 | 0.00 | 0.00 | 0.00 | 43 | 1010.1 |
| 20260503210440 | 15 | 258 | 12.9 | 16.1 | 0.00 | 0.00 | 0.00 | 43 | 1009.9 |
| 20260503205940 | 15 | 234 | 14.5 | 16.1 | 0.00 | 0.00 | 0.00 | 42 | 1010.1 |
| 20260503205437 | 15 | 289 | 17.7 | 20.9 | 0.00 | 0.00 | 0.00 | 40 | 1010.2 |
| 20260503204933 | 14 | 226 | 4.8 | 8.0 | 0.00 | 0.00 | 0.00 | 43 | 1010.1 |
| 20260503204430 | 14 | 249 | 6.4 | 8.0 | 0.00 | 0.00 | 0.00 | 45 | 1010.2 |
| 20260503203927 | 15 | 222 | 8.0 | 11.3 | 0.00 | 0.00 | 0.00 | 43 | 1010.0 |
| 20260503203425 | 14 | 211 | 8.0 | 11.3 | 0.00 | 0.00 | 0.00 | 42 | 1010.2 |
| 20260503202921 | 15 | 237 | 14.5 | 16.1 | 0.00 | 0.00 | 0.00 | 41 | 1010.3 |
| 20260503202420 | 15 | 249 | 4.8 | 8.0 | 0.00 | 0.00 | 0.00 | 41 | 1010.1 |
| 20260503201918 | 15 | 268 | 8.0 | 9.7 | 0.00 | 0.00 | 0.00 | 41 | 1010.5 |
| 20260503201415 | 15 | 254 | 9.7 | 20.9 | 0.00 | 0.00 | 0.00 | 41 | 1010.5 |
| 20260503200912 | 15 | 216 | 1.6 | 1.6 | 0.00 | 0.00 | 0.00 | 41 | 1010.4 |
| 20260503200408 | 14 | 235 | 6.4 | 9.7 | 0.00 | 0.00 | 0.00 | 42 | 1010.2 |
| 20260503195905 | 14 | 232 | 17.7 | 22.5 | 0.00 | 0.00 | 0.00 | 42 | 1010.4 |
| 20260503195402 | 15 | 258 | 11.3 | 16.1 | 0.00 | 0.00 | 0.00 | 41 | 1010.5 |
| 20260503194859 | 15 | 300 | 12.9 | 17.7 | 0.00 | 0.00 | 0.00 | 41 | 1010.7 |
| 20260503194355 | 15 | 228 | 8.0 | 11.3 | 0.00 | 0.00 | 0.00 | 41 | 1011.1 |
| 20260503193851 | 15 | 236 | 8.0 | 11.3 | 0.00 | 0.00 | 0.00 | 41 | 1011.0 |
| 20260503193347 | 15 | 230 | 8.0 | 11.3 | 0.00 | 0.00 | 0.00 | 42 | 1011.1 |
| 20260503192843 | 15 | 236 | 14.5 | 16.1 | 0.00 | 0.00 | 0.00 | 43 | 1011.1 |
| 20260503192339 | 15 | 221 | 11.3 | 12.9 | 0.00 | 0.00 | 0.00 | 43 | 1011.3 |
| 20260503191835 | 14 | 218 | 6.4 | 9.7 | 0.00 | 0.00 | 0.00 | 45 | 1011.2 |
| 20260503191332 | 15 | 263 | 11.3 | 20.9 | 0.00 | 0.00 | 0.00 | 43 | 1011.3 |
| 20260503190829 | 15 | 253 | 8.0 | 9.7 | 0.00 | 0.00 | 0.00 | 45 | 1011.4 |
| 20260503190326 | 13 | 223 | 3.2 | 8.0 | 0.00 | 0.00 | 0.00 | 44 | 1011.6 |
| 20260503185824 | 14 | 264 | 12.9 | 16.1 | 0.00 | 0.00 | 0.00 | 43 | 1011.8 |
| 20260503185319 | 14 | 234 | 9.7 | 11.3 | 0.00 | 0.00 | 0.00 | 43 | 1011.8 |
| 20260503184814 | 14 | 250 | 14.5 | 16.1 | 0.00 | 0.00 | 0.00 | 42 | 1011.8 |
| 20260503184310 | 14 | 261 | 8.0 | 11.3 | 0.00 | 0.00 | 0.00 | 43 | 1011.6 |
| 20260503183806 | 15 | 231 | 4.8 | 8.0 | 0.00 | 0.00 | 0.00 | 43 | 1012.0 |
| 20260503183304 | 14 | 237 | 14.5 | 20.9 | 0.00 | 0.00 | 0.00 | 38 | 1012.1 |
| 20260503182801 | 14 | 233 | 9.7 | 11.3 | 0.00 | 0.00 | 0.00 | 44 | 1012.0 |
| 20260503182300 | 15 | 228 | 8.0 | 11.3 | 0.00 | 0.00 | 0.00 | 42 | 1012.1 |
| 20260503181756 | 13 | 251 | 12.9 | 22.5 | 0.00 | 0.00 | 0.00 | 44 | 1011.9 |
| 20260503181253 | 13 | 217 | 11.3 | 12.9 | 0.00 | 0.00 | 0.00 | 43 | 1012.2 |
| 20260503180749 | 14 | 256 | 9.7 | 11.3 | 0.00 | 0.00 | 0.00 | 42 | 1012.2 |
| 20260503180248 | 14 | 213 | 6.4 | 9.7 | 0.00 | 0.00 | 0.00 | 43 | 1012.4 |
| 20260503175744 | 13 | 240 | 6.4 | 8.0 | 0.00 | 0.00 | 0.00 | 44 | 1012.3 |
| 20260503175242 | 13 | 243 | 19.3 | 25.7 | 0.00 | 0.00 | 0.00 | 42 | 1012.2 |
| 20260503174738 | 14 | 267 | 12.9 | 16.1 | 0.00 | 0.00 | 0.00 | 45 | 1012.6 |
| 20260503174237 | 13 | 224 | 17.7 | 22.5 | 0.00 | 0.00 | 0.00 | 45 | 1012.4 |
| 20260503173736 | 13 | 206 | 8.0 | 12.9 | 0.00 | 0.00 | 0.00 | 47 | 1012.3 |
| 20260503173232 | 13 | 228 | 8.0 | 11.3 | 0.00 | 0.00 | 0.00 | 48 | 1012.5 |
| 20260503172729 | 13 | 282 | 11.3 | 14.5 | 0.00 | 0.00 | 0.00 | 47 | 1012.5 |
| 20260503172227 | 13 | 251 | 6.4 | 8.0 | 0.00 | 0.00 | 0.00 | 51 | 1012.7 |
| 20260503171723 | 12 | 210 | 11.3 | 14.5 | 0.00 | 0.00 | 0.00 | 49 | 1012.8 |
| 20260503171220 | 13 | 239 | 11.3 | 14.5 | 0.00 | 0.00 | 0.00 | 48 | 1012.9 |
| 20260503170717 | 13 | 201 | 12.9 | 14.5 | 0.00 | 0.00 | 0.00 | 48 | 1012.7 |
| 20260503170214 | 12 | 221 | 8.0 | 9.7 | 0.00 | 0.00 | 0.00 | 51 | 1013.0 |
| 20260503160136 | 12 | 233 | 9.7 | 11.3 | 0.00 | 0.00 | 0.00 | 48 | 1013.5 |
| 20260503150606 | 11 | 225 | 9.7 | 11.3 | 0.00 | 0.00 | 0.00 | 48 | 1013.8 |
| 20260503130955 | 7 | 232 | 4.8 | 4.8 | 0.00 | 0.00 | 0.00 | 52 | 1014.4 |
| 20260503130453 | 7 | 209 | 4.8 | 4.8 | 0.00 | 0.00 | 0.00 | 53 | 1014.6 |
| 20260503110349 | 0 | 206 | 0.0 | 1.6 | 0.00 | 0.00 | 0.00 | 87 | 1013.8 |
| 20260503090241 | 0 | 210 | 0.0 | 0.0 | 0.00 | 0.00 | 0.00 | 91 | 1013.7 |
| 20260503081209 | 1 | 210 | 0.0 | 0.0 | 0.00 | 0.00 | 0.00 | 89 | 1013.8 |
| 20260503080704 | 1 | 210 | 0.0 | 0.0 | 0.00 | 0.00 | 0.00 | 89 | 1013.9 |
| 20260503080201 | 1 | 210 | 0.0 | 0.0 | 0.00 | 0.00 | 0.00 | 88 | 1014.0 |
| 20260503072638 | 1 | 209 | 0.0 | 1.6 | 0.00 | 0.00 | 0.00 | 89 | 1014.0 |
| 20260503072135 | 1 | 209 | 1.6 | 1.6 | 0.00 | 0.00 | 0.00 | 89 | 1013.7 |
| 20260503071631 | 1 | 210 | 1.6 | 1.6 | 0.00 | 0.00 | 0.00 | 90 | 1013.7 |
| 20260503071128 | 1 | 211 | 0.0 | 0.0 | 0.00 | 0.00 | 0.00 | 90 | 1013.8 |
| 20260503070625 | 1 | 211 | 1.6 | 1.6 | 0.00 | 0.00 | 0.00 | 90 | 1013.7 |
| 20260503070124 | 1 | 211 | 0.0 | 1.6 | 0.00 | 0.00 | 0.00 | 90 | 1013.9 |
| 20260503055044 | 2 | 220 | 0.0 | 0.0 | 0.00 | 0.00 | 0.00 | 88 | 1013.9 |
| 20260503054540 | 2 | 221 | 0.0 | 0.0 | 0.00 | 0.00 | 0.00 | 88 | 1013.9 |
| 20260503054037 | 2 | 221 | 0.0 | 0.0 | 0.00 | 0.00 | 0.00 | 87 | 1014.1 |
| 20260503053535 | 2 | 220 | 0.0 | 1.6 | 0.00 | 0.00 | 0.00 | 87 | 1014.1 |
| 20260503053032 | 2 | 220 | 1.6 | 1.6 | 0.00 | 0.00 | 0.00 | 87 | 1014.2 |
| 20260503052529 | 2 | 221 | 0.0 | 0.0 | 0.00 | 0.00 | 0.00 | 87 | 1014.2 |
| 20260503052025 | 2 | 221 | 0.0 | 0.0 | 0.00 | 0.00 | 0.00 | 87 | 1014.0 |
| 20260503051521 | 2 | 221 | 0.0 | 0.0 | 0.00 | 0.00 | 0.00 | 86 | 1014.3 |
| 20260503051019 | 2 | 221 | 0.0 | 0.0 | 0.00 | 0.00 | 0.00 | 85 | 1014.2 |
| 20260503050514 | 2 | 221 | 0.0 | 0.0 | 0.00 | 0.00 | 0.00 | 85 | 1014.1 |
| 20260503050012 | 2 | 221 | 0.0 | 1.6 | 0.00 | 0.00 | 0.00 | 85 | 1014.0 |
| 20260503045509 | 2 | 221 | 0.0 | 1.6 | 0.00 | 0.00 | 0.00 | 84 | 1014.1 |
| 20260503045006 | 2 | 221 | 0.0 | 0.0 | 0.00 | 0.00 | 0.00 | 84 | 1014.1 |
| 20260503044503 | 2 | 221 | 0.0 | 0.0 | 0.00 | 0.00 | 0.00 | 84 | 1014.1 |
| 20260503044001 | 3 | 221 | 0.0 | 0.0 | 0.00 | 0.00 | 0.00 | 83 | 1014.2 |
| 20260503043456 | 3 | 221 | 0.0 | 0.0 | 0.00 | 0.00 | 0.00 | 82 | 1014.1 |
| 20260503042953 | 3 | 221 | 0.0 | 0.0 | 0.00 | 0.00 | 0.00 | 82 | 1014.2 |
| 20260503042450 | 3 | 221 | 0.0 | 1.6 | 0.00 | 0.00 | 0.00 | 82 | 1014.2 |
| 20260503041946 | 3 | 222 | 0.0 | 1.6 | 0.00 | 0.00 | 0.00 | 82 | 1014.4 |
| 20260503041443 | 3 | 222 | 0.0 | 1.6 | 0.00 | 0.00 | 0.00 | 81 | 1014.3 |
| 20260503040941 | 3 | 218 | 3.2 | 3.2 | 0.00 | 0.00 | 0.00 | 81 | 1014.6 |
| 20260503040438 | 3 | 215 | 1.6 | 1.6 | 0.00 | 0.00 | 0.00 | 82 | 1014.4 |
| 20260503035935 | 3 | 215 | 1.6 | 1.6 | 0.00 | 0.51 | 0.51 | 82 | 1014.4 |
| 20260503035432 | 3 | 214 | 1.6 | 1.6 | 0.00 | 0.51 | 0.51 | 82 | 1014.4 |
| 20260503034930 | 3 | 213 | 0.0 | 1.6 | 0.00 | 0.51 | 0.51 | 82 | 1014.4 |
| 20260503034427 | 3 | 213 | 1.6 | 1.6 | 0.00 | 0.51 | 0.51 | 81 | 1014.4 |
| 20260503033924 | 3 | 213 | 1.6 | 1.6 | 0.00 | 0.51 | 0.51 | 82 | 1014.6 |
| 20260503033421 | 3 | 213 | 0.0 | 0.0 | 0.00 | 0.51 | 0.51 | 82 | 1014.4 |
| 20260503032919 | 3 | 212 | 1.6 | 1.6 | 0.00 | 0.51 | 0.51 | 82 | 1014.6 |
| 20260503032418 | 3 | 226 | 1.6 | 1.6 | 0.00 | 0.51 | 0.51 | 81 | 1014.4 |
| 20260503031915 | 3 | 223 | 1.6 | 1.6 | 0.00 | 0.51 | 0.51 | 81 | 1014.7 |
| 20260503031412 | 3 | 224 | 3.2 | 3.2 | 0.00 | 0.51 | 0.51 | 82 | 1014.4 |
| 20260503030909 | 3 | 210 | 1.6 | 1.6 | 0.00 | 0.51 | 0.51 | 81 | 1014.4 |
| 20260503030405 | 3 | 220 | 1.6 | 1.6 | 0.00 | 0.51 | 0.51 | 82 | 1014.3 |
| 20260503025902 | 3 | 215 | 0.0 | 0.0 | 0.00 | 0.51 | 0.51 | 82 | 1014.6 |
| 20260503025359 | 3 | 214 | 1.6 | 1.6 | 0.00 | 0.51 | 0.51 | 80 | 1014.7 |
| 20260503024856 | 3 | 214 | 0.0 | 1.6 | 0.00 | 0.51 | 0.51 | 80 | 1014.6 |
| 20260503024353 | 4 | 214 | 1.6 | 1.6 | 0.00 | 0.51 | 0.51 | 80 | 1014.8 |
| 20260503023850 | 4 | 213 | 0.0 | 1.6 | 0.00 | 0.51 | 0.51 | 80 | 1014.8 |
| 20260503023347 | 4 | 211 | 3.2 | 3.2 | 0.00 | 0.51 | 0.51 | 78 | 1015.1 |
| 20260503022843 | 4 | 228 | 0.0 | 1.6 | 0.00 | 0.51 | 0.51 | 79 | 1015.1 |
| 20260503022338 | 4 | 233 | 1.6 | 1.6 | 0.00 | 0.51 | 0.51 | 79 | 1014.7 |
| 20260503021834 | 4 | 233 | 0.0 | 1.6 | 0.00 | 0.51 | 0.51 | 78 | 1014.7 |
| 20260503021331 | 4 | 233 | 0.0 | 1.6 | 0.00 | 0.51 | 0.51 | 77 | 1014.8 |
| 20260503020828 | 4 | 235 | 1.6 | 1.6 | 0.00 | 0.51 | 0.51 | 77 | 1014.9 |
| 20260503020326 | 4 | 243 | 3.2 | 3.2 | 0.00 | 0.51 | 0.51 | 76 | 1014.8 |
| 20260503015822 | 4 | 256 | 3.2 | 3.2 | 0.00 | 0.51 | 0.51 | 76 | 1014.4 |
| 20260503015319 | 4 | 258 | 1.6 | 1.6 | 0.00 | 0.51 | 0.51 | 77 | 1014.6 |
| 20260503014815 | 4 | 259 | 3.2 | 3.2 | 0.00 | 0.51 | 0.51 | 77 | 1014.8 |
| 20260503014313 | 4 | 266 | 1.6 | 1.6 | 0.00 | 0.51 | 0.51 | 78 | 1014.8 |
| 20260503013810 | 4 | 277 | 1.6 | 1.6 | 0.00 | 0.51 | 0.51 | 78 | 1014.6 |
| 20260503013308 | 4 | 277 | 1.6 | 1.6 | 0.00 | 0.51 | 0.51 | 76 | 1014.7 |
| 20260503012804 | 4 | 278 | 1.6 | 1.6 | 0.00 | 0.51 | 0.51 | 78 | 1014.7 |
| 20260503012305 | 4 | 278 | 0.0 | 0.0 | 0.00 | 0.51 | 0.51 | 77 | 1014.6 |
| 20260503011758 | 4 | 278 | 1.6 | 1.6 | 0.00 | 0.51 | 0.51 | 78 | 1014.7 |
| 20260503011255 | 4 | 278 | 0.0 | 0.0 | 0.00 | 0.51 | 0.51 | 76 | 1014.4 |
| 20260503010752 | 4 | 278 | 1.6 | 1.6 | 0.00 | 0.51 | 0.51 | 76 | 1014.8 |
| 20260503010249 | 4 | 279 | 0.0 | 0.0 | 0.00 | 0.51 | 0.51 | 77 | 1014.4 |
| 20260503005746 | 4 | 279 | 0.0 | 0.0 | 0.00 | 0.51 | 0.51 | 74 | 1014.6 |
| 20260503005243 | 5 | 279 | 0.0 | 0.0 | 0.00 | 0.51 | 0.51 | 72 | 1014.6 |
| 20260503004739 | 5 | 279 | 1.6 | 1.6 | 0.00 | 0.51 | 0.51 | 71 | 1014.4 |
| 20260503004237 | 5 | 279 | 1.6 | 1.6 | 0.00 | 0.51 | 0.51 | 68 | 1014.3 |
| 20260503003735 | 5 | 279 | 0.0 | 1.6 | 0.00 | 0.51 | 0.51 | 67 | 1014.3 |
| 20260503003232 | 5 | 281 | 0.0 | 1.6 | 0.00 | 0.51 | 0.51 | 67 | 1014.3 |
| 20260503002728 | 5 | 286 | 1.6 | 1.6 | 0.00 | 0.51 | 0.51 | 65 | 1014.2 |
| 20260503002225 | 5 | 290 | 1.6 | 1.6 | 0.00 | 0.51 | 0.51 | 64 | 1014.7 |
| 20260503001721 | 5 | 289 | 1.6 | 1.6 | 0.00 | 0.51 | 0.51 | 64 | 1014.4 |
| 20260503001218 | 5 | 311 | 0.0 | 1.6 | 0.00 | 0.51 | 0.51 | 64 | 1014.2 |
| 20260503000716 | 5 | 311 | 1.6 | 1.6 | 0.00 | 0.51 | 0.51 | 62 | 1014.2 |
| 20260503000213 | 5 | 357 | 0.0 | 1.6 | 0.00 | 0.51 | 0.51 | 64 | 1014.7 |
| 20260502235710 | 5 | 357 | 1.6 | 1.6 | 0.00 | 0.51 | 0.51 | 63 | 1014.3 |
| 20260502235208 | 5 | 357 | 1.6 | 1.6 | 0.00 | 0.51 | 0.51 | 62 | 1014.2 |
| 20260502234703 | 6 | 357 | 1.6 | 1.6 | 0.00 | 0.51 | 0.51 | 64 | 1014.4 |
| 20260502234201 | 5 | 357 | 0.0 | 1.6 | 0.00 | 0.51 | 0.51 | 65 | 1014.2 |
| 20260502233656 | 5 | 357 | 0.0 | 0.0 | 0.00 | 0.51 | 0.51 | 65 | 1014.2 |
| 20260502233153 | 5 | 357 | 0.0 | 1.6 | 0.00 | 0.51 | 0.51 | 62 | 1014.2 |
| 20260502232649 | 5 | 357 | 1.6 | 1.6 | 0.00 | 0.51 | 0.51 | 60 | 1014.1 |
| 20260502232147 | 5 | 333 | 1.6 | 1.6 | 0.00 | 0.51 | 0.51 | 60 | 1014.2 |
| 20260502231643 | 5 | 354 | 1.6 | 1.6 | 0.00 | 0.51 | 0.51 | 61 | 1014.3 |
| 20260502231141 | 5 | 332 | 1.6 | 3.2 | 0.00 | 0.51 | 0.51 | 60 | 1014.4 |
| 20260502230640 | 5 | 13 | 3.2 | 3.2 | 0.00 | 0.51 | 0.51 | 64 | 1014.4 |
| 20260502230138 | 5 | 9 | 4.8 | 4.8 | 0.00 | 0.51 | 0.51 | 60 | 1014.3 |
| 20260502225633 | 5 | 346 | 1.6 | 1.6 | 0.00 | 0.51 | 0.51 | 60 | 1014.3 |
| 20260502225131 | 6 | 310 | 3.2 | 3.2 | 0.00 | 0.51 | 0.51 | 60 | 1014.6 |